Time+12,TemperatureF,Dew PointF,Humidity,Sea Level PressureIn,VisibilityMPH,Wind Direction,Wind SpeedMPH,Gust SpeedMPH,PrecipitationIn,Events,Conditions,WindDirDegrees,DateUTC
12:00 AM,74,71,87,29.94,12,NNW,5.8,,,,Partly Cloudy,330,2012-10-08 12:00:00
12:00 AM,73.4,71.6,94,29.92,24.9,NNW,5.8,-,N/A,,Mostly Cloudy,330,2012-10-08 12:00:00
1:00 AM,73.4,69.8,88,29.89,31.1,SSW,6.9,-,N/A,,Scattered Clouds,210,2012-10-08 13:00:00
2:00 AM,73.4,69.8,88,29.89,31.1,SSW,5.8,-,N/A,,Scattered Clouds,210,2012-10-08 14:00:00
3:00 AM,73,69,84,29.89,31,SE,5.8,,,,Partly Cloudy,140,2012-10-08 15:00:00
3:00 AM,73.4,69.8,88,29.89,31.1,SE,5.8,-,N/A,,Scattered Clouds,140,2012-10-08 15:00:00
4:00 AM,71.6,69.8,94,29.89,31.1,SE,5.8,-,N/A,,Scattered Clouds,130,2012-10-08 16:00:00
5:00 AM,71.6,69.8,94,29.89,31.1,Calm,Calm,-,N/A,,Scattered Clouds,0,2012-10-08 17:00:00
6:00 AM,72,69,88,29.92,31,Calm,Calm,,,,Partly Cloudy,,2012-10-08 18:00:00
6:00 AM,71.6,69.8,94,29.92,31.1,Calm,Calm,-,N/A,,Scattered Clouds,0,2012-10-08 18:00:00
7:00 AM,73.4,71.6,94,29.92,31.1,Calm,Calm,-,N/A,,Mostly Cloudy,0,2012-10-08 19:00:00
8:00 AM,78.8,71.6,78,29.95,31.1,Calm,Calm,-,N/A,,Scattered Clouds,0,2012-10-08 20:00:00
9:00 AM,82,74,72,29.97,31,West,6.9,,,,Partly Cloudy,270,2012-10-08 21:00:00
9:00 AM,82.4,75.2,79,29.95,31.1,West,6.9,-,N/A,,Scattered Clouds,270,2012-10-08 21:00:00
10:00 AM,82.4,73.4,74,29.95,31.1,West,6.9,-,N/A,,Scattered Clouds,270,2012-10-08 22:00:00
11:00 AM,82.4,73.4,74,29.95,31.1,WNW,11.5,-,N/A,,Partly Cloudy,300,2012-10-08 23:00:00
12:00 PM,83,74,69,29.93,31,West,9.2,,,,Partly Cloudy,270,2012-10-09 00:00:00
12:00 PM,82.4,75.2,79,29.92,31.1,West,9.2,-,N/A,,Scattered Clouds,270,2012-10-09 00:00:00
1:00 PM,84.2,77.0,79,29.89,31.1,West,9.2,-,N/A,,Scattered Clouds,270,2012-10-09 01:00:00
2:00 PM,84.2,75.2,74,29.89,31.1,WSW,11.5,-,N/A,,Mostly Cloudy,250,2012-10-09 02:00:00
3:00 PM,84,74,66,29.88,31,West,11.5,,,,Partly Cloudy,270,2012-10-09 03:00:00
3:00 PM,84.2,75.2,74,29.86,31.1,West,11.5,-,N/A,,Mostly Cloudy,270,2012-10-09 03:00:00
4:00 PM,82.4,75.2,79,29.89,31.1,WSW,10.4,-,N/A,,Scattered Clouds,240,2012-10-09 04:00:00
5:00 PM,82.4,75.2,79,29.89,31.1,WSW,10.4,-,N/A,,Scattered Clouds,240,2012-10-09 05:00:00
6:00 PM,81,74,74,29.93,31,South,5.8,,,,Partly Cloudy,180,2012-10-09 06:00:00
6:00 PM,80.6,73.4,79,29.92,31.1,South,5.8,-,N/A,,Mostly Cloudy,180,2012-10-09 06:00:00
7:00 PM,80.6,75.2,84,29.95,24.9,South,3.5,-,N/A,,Mostly Cloudy,180,2012-10-09 07:00:00
8:00 PM,80.6,75.2,84,29.95,24.9,Calm,Calm,-,N/A,,Mostly Cloudy,0,2012-10-09 08:00:00
9:00 PM,78,75,89,29.99,12,East,6.9,,,,Partly Cloudy,90,2012-10-09 09:00:00
9:00 PM,78.8,75.2,89,29.98,24.9,East,6.9,-,N/A,,Scattered Clouds,90,2012-10-09 09:00:00
10:00 PM,77.0,73.4,89,29.98,24.9,ESE,6.9,-,N/A,,Scattered Clouds,120,2012-10-09 10:00:00
11:00 PM,75.2,73.4,94,29.98,24.9,Calm,Calm,-,N/A,,Scattered Clouds,0,2012-10-09 11:00:00